FW1597 Weather Reports


Display with metric or nautical units.
time (UTC)temp
F
wind
direction
speed
MPH
gust
MPH
rain 1hr
in
rain 24hr
in
rain mn
in
humidity
%
barometer
mb
20260504110116 37 350 12.0 34.0 0.05 0.73 0.20 90 989.0
20260504081517 38 180 8.0 23.0 0.01 0.65 0.12 90 980.7
20260504044557 39 183 3.0 10.0 0.02 0.59 0.06 93 974.2
20260504043044 39 187 3.0 8.0 0.02 0.57 0.05 93 973.6
20260504041542 38 197 2.0 9.0 0.03 0.57 0.05 93 973.1
20260504040042 39 180 3.0 20.0 0.04 0.56 0.04 93 972.9
20260504034545 39 144 5.0 20.0 0.06 0.56 0.04 92 973.2
20260504033049 39 138 7.0 15.0 0.06 0.56 0.03 92 973.8
20260504031533 39 150 10.0 25.0 0.04 0.55 0.02 92 974.6
20260504030027 39 136 9.0 20.0 0.02 0.54 0.00 92 975.8
20260504024524 39 177 9.0 27.0 0.01 0.52 0.52 92 976.5
20260504023020 39 138 9.0 23.0 0.00 0.51 0.51 92 977.4
20260504021525 40 166 7.0 20.0 0.00 0.51 0.51 92 978.5
20260504020016 40 127 8.0 19.0 0.00 0.51 0.51 92 979.2
20260504014514 41 109 9.0 19.0 0.01 0.51 0.51 92 980.0
20260504013009 42 113 7.0 21.0 0.02 0.51 0.51 93 980.9
20260504011503 42 92 7.0 18.0 0.02 0.51 0.51 93 981.9
20260504010112 42 160 6.0 18.0 0.03 0.51 0.51 93 982.3
20260504004601 41 153 4.0 17.0 0.03 0.50 0.50 93 983.0
20260504003055 41 140 6.0 12.0 0.02 0.49 0.49 93 983.3
20260504001609 40 86 4.0 17.0 0.02 0.49 0.49 92 984.2
20260504000050 40 194 3.0 13.0 0.02 0.48 0.48 92 984.9
20260503234547 40 71 8.0 25.0 0.05 0.47 0.47 92 985.4
20260503233043 40 84 5.0 15.0 0.10 0.47 0.47 93 986.6
20260503231541 40 32 7.0 14.0 0.14 0.46 0.46 93 987.5
20260503230037 39 138 3.0 12.0 0.18 0.46 0.46 92 988.4
20260503224537 39 31 4.0 13.0 0.18 0.43 0.43 92 989.2
20260503223034 39 78 5.0 12.0 0.18 0.36 0.36 92 989.8
20260503221537 39 65 4.0 14.0 0.17 0.32 0.32 92 990.9
20260503220026 38 48 5.0 15.0 0.13 0.28 0.28 92 992.3
20260503214525 38 57 4.0 11.0 0.13 0.24 0.24 92 993.1
20260503213029 38 124 5.0 12.0 0.09 0.18 0.18 92 993.5
20260503211520 38 71 5.0 16.0 0.09 0.15 0.15 91 994.4
20260503210015 38 119 6.0 14.0 0.10 0.15 0.15 91 994.7
20260503204514 39 111 3.0 13.0 0.09 0.12 0.12 91 995.2
20260503203009 40 197 5.0 16.0 0.06 0.09 0.09 90 996.0
20260503201523 41 161 4.0 12.0 0.03 0.06 0.06 91 996.3
20260503200108 41 77 5.0 14.0 0.04 0.05 0.05 90 996.7
20260503194503 42 89 4.0 12.0 0.02 0.03 0.03 90 998.2
20260503193001 42 80 7.0 16.0 0.02 0.02 0.02 89 998.9
20260503191602 42 100 3.0 17.0 0.02 0.02 0.02 88 999.6
20260503190059 42 159 4.0 14.0 0.01 0.01 0.01 87 1000.0
20260503184553 43 113 3.0 13.0 0.01 0.01 0.01 85 1000.9
20260503183051 44 88 3.0 13.0 0.01 0.01 0.01 85 1001.8
20260503181618 43 11 2.0 4.0 0.01 0.01 0.01 86 1002.7
20260503180050 42 229 2.0 8.0 0.00 0.00 0.00 86 1003.1
20260503174543 43 336 1.0 5.0 0.00 0.00 0.00 84 1004.6
20260503173052 44 34 3.0 6.0 0.00 0.00 0.00 80 1005.1
20260503171537 44 59 1.0 8.0 0.00 0.00 0.00 78 1006.2